| time (UTC) | temp C | wind direction | speed KPH | gust KPH | rain 1hr cm | rain 24hr cm | rain mn cm | humidity % | barometer mb |
| 20260901091639 | 19 | 122 | 0.0 | 0.0 | 0.00 | 0.13 | 0.10 | 97 | 1013.5 |
| 20260901090138 | 19 | 122 | 0.0 | 0.0 | 0.00 | 0.13 | 0.10 | 97 | 1013.3 |
| 20260901084656 | 19 | 122 | 0.0 | 0.0 | 0.00 | 0.13 | 0.10 | 97 | 1013.3 |
| 20260901083132 | 19 | 122 | 0.0 | 0.0 | 0.00 | 0.13 | 0.10 | 97 | 1013.5 |
| 20260901081629 | 19 | 122 | 0.0 | 0.0 | 0.00 | 0.13 | 0.10 | 97 | 1013.8 |
| 20260901080124 | 19 | 122 | 0.0 | 0.0 | 0.08 | 0.13 | 0.10 | 97 | 1013.7 |
| 20260901074639 | 19 | 122 | 0.0 | 0.0 | 0.08 | 0.13 | 0.10 | 97 | 1014.0 |
| 20260901073129 | 19 | 122 | 0.0 | 0.0 | 0.08 | 0.13 | 0.10 | 97 | 1014.2 |
| 20260901071633 | 19 | 113 | 0.0 | 0.0 | 0.08 | 0.13 | 0.10 | 97 | 1014.4 |
| 20260901070125 | 19 | 113 | 0.0 | 0.0 | 0.00 | 0.05 | 0.03 | 97 | 1014.4 |
| 20260901064627 | 19 | 113 | 0.0 | 0.0 | 0.00 | 0.05 | 0.03 | 97 | 1014.6 |
| 20260901063141 | 19 | 113 | 0.0 | 0.0 | 0.00 | 0.05 | 0.03 | 97 | 1014.8 |
| 20260901061634 | 19 | 113 | 0.0 | 0.0 | 0.00 | 0.05 | 0.03 | 96 | 1014.8 |
| 20260901060126 | 20 | 73 | 0.0 | 0.0 | 0.03 | 0.05 | 0.03 | 97 | 1015.0 |
| 20260901054639 | 20 | 65 | 0.0 | 0.0 | 0.03 | 0.05 | 0.03 | 97 | 1015.1 |
| 20260901053127 | 20 | 64 | 0.0 | 0.0 | 0.03 | 0.05 | 0.03 | 96 | 1015.3 |
| 20260901051622 | 20 | 65 | 0.0 | 0.0 | 0.03 | 0.05 | 0.03 | 96 | 1015.3 |
| 20260901050136 | 20 | 64 | 0.0 | 1.6 | 0.00 | 0.03 | 0.00 | 96 | 1015.2 |
| 20260901044632 | 20 | 61 | 0.0 | 0.0 | 0.00 | 0.03 | 0.00 | 96 | 1015.3 |
| 20260901043122 | 20 | 61 | 0.0 | 0.0 | 0.00 | 0.03 | 0.00 | 96 | 1015.7 |
| 20260831210123 | 20 | 56 | 0.0 | 3.2 | 0.00 | 0.00 | 0.00 | 90 | 1017.0 |
| 20260831204635 | 20 | 97 | 0.0 | 0.0 | 0.00 | 0.00 | 0.00 | 90 | 1017.1 |
| 20260831203132 | 20 | 96 | 0.0 | 0.0 | 0.00 | 0.00 | 0.00 | 90 | 1017.2 |
| 20260831201624 | 20 | 97 | 0.0 | 0.0 | 0.00 | 0.00 | 0.00 | 90 | 1017.2 |
| 20260831200124 | 20 | 96 | 0.0 | 0.0 | 0.00 | 0.00 | 0.00 | 90 | 1017.1 |
| 20260831194659 | 20 | 96 | 0.0 | 0.0 | 0.00 | 0.00 | 0.00 | 89 | 1017.1 |
| 20260831193152 | 20 | 96 | 0.0 | 0.0 | 0.00 | 0.00 | 0.00 | 90 | 1017.3 |
| 20260831191627 | 20 | 96 | 0.0 | 0.0 | 0.00 | 0.00 | 0.00 | 90 | 1017.3 |
| 20260831190135 | 20 | 96 | 0.0 | 1.6 | 0.00 | 0.00 | 0.00 | 90 | 1017.5 |
| 20260831184630 | 20 | 101 | 0.0 | 1.6 | 0.00 | 0.00 | 0.00 | 91 | 1017.7 |
| 20260831183126 | 20 | 101 | 0.0 | 1.6 | 0.00 | 0.00 | 0.00 | 91 | 1017.9 |
| 20260831181623 | 20 | 86 | 0.0 | 1.6 | 0.00 | 0.00 | 0.00 | 91 | 1017.8 |
| 20260831180124 | 20 | 82 | 0.0 | 0.0 | 0.00 | 0.00 | 0.00 | 91 | 1018.2 |
| 20260831174638 | 20 | 82 | 0.0 | 1.6 | 0.00 | 0.00 | 0.00 | 90 | 1018.4 |
| 20260831173131 | 20 | 102 | 0.0 | 4.8 | 0.00 | 0.00 | 0.00 | 89 | 1018.4 |
| 20260831171733 | 20 | 68 | 0.0 | 1.6 | 0.00 | 0.00 | 0.00 | 89 | 1018.5 |
| 20260831170146 | 20 | 72 | 0.0 | 0.0 | 0.00 | 0.00 | 0.00 | 89 | 1018.6 |
| 20260831164621 | 20 | 72 | 0.0 | 1.6 | 0.00 | 0.00 | 0.00 | 88 | 1018.8 |
| 20260831163122 | 20 | 75 | 0.0 | 1.6 | 0.00 | 0.00 | 0.00 | 88 | 1019.0 |
| 20260831161628 | 20 | 82 | 0.0 | 3.2 | 0.00 | 0.00 | 0.00 | 87 | 1019.2 |
| 20260831160128 | 20 | 44 | 1.6 | 4.8 | 0.00 | 0.00 | 0.00 | 89 | 1018.9 |
| 20260831154629 | 20 | 82 | 0.0 | 1.6 | 0.00 | 0.00 | 0.00 | 90 | 1019.1 |
| 20260831153145 | 20 | 57 | 0.0 | 1.6 | 0.00 | 0.00 | 0.00 | 90 | 1019.0 |
| 20260831151636 | 20 | 65 | 0.0 | 0.0 | 0.00 | 0.00 | 0.00 | 88 | 1019.3 |
| 20260831150139 | 20 | 62 | 0.0 | 3.2 | 0.00 | 0.00 | 0.00 | 87 | 1019.2 |
| 20260831144638 | 20 | 49 | 0.0 | 9.7 | 0.00 | 0.00 | 0.00 | 85 | 1019.1 |
| 20260831143133 | 20 | 73 | 3.2 | 9.7 | 0.00 | 0.00 | 0.00 | 84 | 1018.8 |
| 20260831141646 | 20 | 159 | 0.0 | 0.0 | 0.00 | 0.00 | 0.00 | 87 | 1018.9 |
| 20260831140204 | 20 | 157 | 0.0 | 1.6 | 0.00 | 0.00 | 0.00 | 87 | 1019.1 |
| 20260831134634 | 19 | 51 | 0.0 | 3.2 | 0.00 | 0.00 | 0.00 | 88 | 1019.0 |
| 20260831133149 | 18 | 56 | 0.0 | 4.8 | 0.00 | 0.00 | 0.00 | 90 | 1019.0 |
| 20260831131659 | 18 | 104 | 0.0 | 1.6 | 0.00 | 0.00 | 0.00 | 91 | 1018.9 |
| 20260831130132 | 17 | 27 | 1.6 | 3.2 | 0.00 | 0.00 | 0.00 | 92 | 1019.0 |
| 20260831124628 | 17 | 89 | 0.0 | 1.6 | 0.00 | 0.00 | 0.00 | 93 | 1019.0 |
| 20260831123123 | 17 | 95 | 0.0 | 0.0 | 0.00 | 0.00 | 0.00 | 93 | 1019.2 |
| 20260831121637 | 17 | 95 | 0.0 | 1.6 | 0.00 | 0.00 | 0.00 | 94 | 1019.2 |
| 20260831120135 | 17 | 95 | 0.0 | 3.2 | 0.00 | 0.00 | 0.00 | 94 | 1019.4 |
| 20260831114629 | 17 | 96 | 0.0 | 0.0 | 0.00 | 0.00 | 0.00 | 95 | 1019.5 |
| 20260831113126 | 16 | 96 | 0.0 | 0.0 | 0.00 | 0.00 | 0.00 | 95 | 1019.2 |
| 20260831111624 | 16 | 96 | 0.0 | 1.6 | 0.00 | 0.00 | 0.00 | 95 | 1019.3 |
| 20260831110146 | 16 | 96 | 0.0 | 0.0 | 0.00 | 0.00 | 0.00 | 95 | 1019.3 |
| 20260831104636 | 16 | 96 | 0.0 | 0.0 | 0.00 | 0.00 | 0.00 | 95 | 1019.4 |
| 20260831103138 | 16 | 96 | 0.0 | 0.0 | 0.00 | 0.00 | 0.00 | 94 | 1019.0 |
| 20260831101656 | 16 | 96 | 0.0 | 0.0 | 0.00 | 0.00 | 0.00 | 94 | 1018.8 |
| 20260831100128 | 16 | 96 | 0.0 | 0.0 | 0.00 | 0.00 | 0.00 | 94 | 1018.7 |
| 20260831094645 | 16 | 96 | 0.0 | 0.0 | 0.00 | 0.00 | 0.00 | 94 | 1018.6 |
| 20260831093138 | 16 | 96 | 0.0 | 0.0 | 0.00 | 0.00 | 0.00 | 93 | 1018.8 |